Oconto, WI

8:08 PM CDT on July 27, 2017 (GMT -0500)
Oconto Municipal

Weather History for KOCQ - March, 2013

Change the Weather History Date:

Saturday, March 16, 2013

  Actual Average Record
Temperature  
Mean Temperature 22 °F -  
Max Temperature 28 °F 39 °F 59 °F (2015)
Min Temperature 17 °F 17 °F 1 °F (2014)
Degree Days  
Heating Degree Days 42    
Moisture  
Dew Point 12 °F    
Average Humidity 68    
Maximum Humidity 91    
Minimum Humidity 48    
Precipitation  
Precipitation 0.00 in - - ()
Sea Level Pressure  
Sea Level Pressure 29.98 in    
Wind  
Wind Speed 7 mph (NNW)    
Max Wind Speed 14 mph    
Max Gust Speed 20 mph    
Visibility 9 miles    
Events      
Averages and records for this station are not official NWS values.
T = Trace of Precipitation, MM = Missing Value Source: NWS Daily Summary

Daily Weather History Graph

Daily Weather History Graph

Search for Another Location

Airport or City:

Trip Planner

Search our weather history database for the weather conditions in past years. The results will help you decide how hot, cold, wet, or windy it might be!

Date:

Astronomy

Mar. 16, 2013 Rise Set
Actual Time 7:01 AM CDT 6:59 PM CDT
Civil Twilight 6:32 AM CDT 7:28 PM CDT
Nautical Twilight 5:58 AM CDT 8:02 PM CDT
Astronomical Twilight 5:23 AM CDT 8:37 PM CDT
Moon 9:18 AM CDT (3/16) No Moon Set
Length of Visible Light 12h 55m
Length of Day
11h 57m
Waxing Crescent, 23% of the Moon is Illuminated
Mar 16
Waxing Crescent
Mar 19
First Quarter
Mar 27
Full
Apr 2
Last Quarter
Apr 10
New

Hourly Weather History & Observations

Time (CDT) Temp. Windchill Dew Point Humidity Pressure Visibility Wind Dir Wind Speed Gust Speed Precip Events Conditions
12:15 AM 19.0 °F 9.0 °F 16.2 °F 89% 29.95 in 2.5 mi NE 8.1 mph - N/A   Overcast
12:55 AM 18.5 °F 8.4 °F 16.2 °F 91% 29.95 in 3.0 mi NNE 8.1 mph - N/A   Overcast
1:15 AM 18.5 °F 9.3 °F 15.6 °F 89% 29.94 in 3.0 mi NNE 6.9 mph - N/A   Overcast
1:35 AM 18.5 °F 9.3 °F 15.8 °F 89% 29.94 in 2.5 mi NNE 6.9 mph - N/A   Overcast
1:55 AM 18.3 °F 7.3 °F 15.6 °F 89% 29.93 in 2.5 mi NNE 9.2 mph - N/A   Overcast
2:15 AM 18.1 °F 7.1 °F 14.7 °F 86% 29.92 in 7.0 mi NNE 9.2 mph - N/A   Overcast
2:35 AM 18.0 °F 9.8 °F 14.5 °F 86% 29.92 in 4.0 mi NNE 5.8 mph - N/A   Overcast
2:55 AM 17.6 °F 7.3 °F 14.0 °F 86% 29.92 in 4.0 mi NNE 8.1 mph - N/A   Overcast
3:15 AM 17.6 °F 8.2 °F 14.0 °F 86% 29.92 in 7.0 mi NNE 6.9 mph - N/A   Overcast
3:35 AM 17.6 °F 9.3 °F 14.0 °F 86% 29.92 in 7.0 mi North 5.8 mph - N/A   Overcast
3:55 AM 17.6 °F 7.3 °F 13.6 °F 84% 29.91 in 10.0 mi NNE 8.1 mph - N/A   Overcast
4:15 AM 17.6 °F 6.4 °F 12.9 °F 82% 29.92 in 10.0 mi North 9.2 mph - N/A   Overcast
4:35 AM 17.2 °F 6.0 °F 13.5 °F 85% 29.92 in 3.0 mi North 9.2 mph - N/A   Overcast
4:55 AM 17.1 °F 6.6 °F 13.8 °F 87% 29.92 in 5.0 mi North 8.1 mph - N/A   Overcast
5:15 AM 17.1 °F 6.6 °F 13.8 °F 87% 29.92 in 7.0 mi North 8.1 mph - N/A   Overcast
5:35 AM 17.1 °F 7.6 °F 13.3 °F 85% 29.93 in 10.0 mi North 6.9 mph - N/A   Overcast
5:55 AM 17.1 °F 6.6 °F 13.1 °F 84% 29.93 in 10.0 mi North 8.1 mph - N/A   Overcast
6:15 AM 17.2 °F 6.8 °F 13.1 °F 84% 29.94 in 10.0 mi North 8.1 mph - N/A   Overcast
6:35 AM 17.1 °F 6.6 °F 13.1 °F 84% 29.94 in 7.0 mi North 8.1 mph - N/A   Overcast
6:55 AM 17.1 °F 8.7 °F 13.1 °F 84% 29.95 in 10.0 mi North 5.8 mph - N/A   Overcast
7:15 AM 17.1 °F 8.7 °F 12.9 °F 84% 29.96 in 10.0 mi North 5.8 mph - N/A   Overcast
7:35 AM 17.2 °F 7.8 °F 13.1 °F 84% 29.97 in 10.0 mi North 6.9 mph - N/A   Overcast
7:55 AM 17.1 °F 7.6 °F 12.9 °F 84% 29.98 in 7.0 mi North 6.9 mph - N/A   Overcast
8:15 AM 17.4 °F 6.2 °F 12.9 °F 83% 29.98 in 7.0 mi North 9.2 mph - N/A   Overcast
8:35 AM 17.6 °F 7.3 °F 12.7 °F 81% 29.99 in 7.0 mi North 8.1 mph - N/A   Overcast
8:55 AM 18.1 °F 7.9 °F 12.4 °F 78% 30.00 in 7.0 mi North 8.1 mph - N/A   Overcast
9:15 AM 18.5 °F 8.4 °F 12.0 °F 76% 30.00 in 10.0 mi NNW 8.1 mph - N/A   Overcast
9:35 AM 19.2 °F 8.4 °F 12.0 °F 74% 30.01 in 10.0 mi NNW 9.2 mph - N/A   Overcast
9:55 AM 19.9 °F 11.1 °F 12.2 °F 72% 30.01 in 10.0 mi North 6.9 mph - N/A   Overcast
10:15 AM 20.3 °F 10.6 °F 12.2 °F 71% 30.01 in 10.0 mi NNW 8.1 mph - N/A   Overcast
10:35 AM 20.7 °F 11.0 °F 12.0 °F 69% 30.01 in 10.0 mi North 8.1 mph - N/A   Scattered Clouds
10:55 AM 21.2 °F 12.6 °F 12.0 °F 68% 30.01 in 10.0 mi North 6.9 mph - N/A   Clear
11:15 AM 21.9 °F 12.5 °F 11.7 °F 65% 30.01 in 10.0 mi North 8.1 mph - N/A   Clear
11:35 AM 22.8 °F 13.6 °F 12.0 °F 63% 30.02 in 10.0 mi North 8.1 mph - N/A   Scattered Clouds
11:55 AM 23.2 °F 16.0 °F 11.5 °F 61% 30.02 in 10.0 mi NNE 5.8 mph - N/A   Scattered Clouds
12:15 PM 23.7 °F 15.6 °F 11.1 °F 59% 30.03 in 10.0 mi NW 6.9 mph - N/A   Scattered Clouds
12:35 PM 24.4 °F 17.5 °F 11.3 °F 57% 30.02 in 10.0 mi NNW 5.8 mph - N/A   Clear
12:55 PM 24.8 °F 17.9 °F 10.6 °F 55% 30.02 in 10.0 mi NNW 5.8 mph - N/A   Clear
1:15 PM 25.3 °F 18.5 °F 9.9 °F 52% 30.02 in 10.0 mi North 5.8 mph - N/A   Clear
1:55 PM 25.9 °F 19.2 °F 10.2 °F 52% 30.00 in 10.0 mi WNW 5.8 mph - N/A   Scattered Clouds
2:15 PM 26.4 °F 19.8 °F 10.4 °F 51% 30.00 in 10.0 mi NW 5.8 mph - N/A   Clear
2:35 PM 26.8 °F 19.3 °F 10.4 °F 50% 30.00 in 10.0 mi NNW 6.9 mph - N/A   Scattered Clouds
2:55 PM 27.0 °F 20.5 °F 10.2 °F 49% 29.99 in 10.0 mi North 5.8 mph - N/A   Clear
3:15 PM 27.0 °F - 11.1 °F 51% 29.99 in 10.0 mi Calm Calm - N/A   Clear
3:35 PM 27.1 °F - 10.6 °F 50% 29.99 in 10.0 mi Calm Calm - N/A   Clear
3:55 PM 28.0 °F - 10.4 °F 48% 29.99 in 10.0 mi Calm Calm - N/A   Scattered Clouds
4:15 PM 26.1 °F 16.8 °F 12.9 °F 58% 29.99 in 10.0 mi South 9.2 mph - N/A   Overcast
4:35 PM 25.7 °F 18.0 °F 13.1 °F 59% 29.98 in 10.0 mi SSE 6.9 mph - N/A   Overcast
4:55 PM 25.5 °F 16.2 °F 12.7 °F 58% 29.98 in 10.0 mi SSE 9.2 mph - N/A   Overcast
5:15 PM 26.6 °F 20.0 °F 13.3 °F 57% 29.98 in 10.0 mi SSE 5.8 mph - N/A   Scattered Clouds
5:35 PM 26.4 °F 18.0 °F 14.0 °F 59% 29.97 in 10.0 mi SSE 8.1 mph - N/A   Clear
5:55 PM 26.6 °F 20.0 °F 13.8 °F 59% 29.97 in 10.0 mi SSE 5.8 mph - N/A   Clear
6:15 PM 26.4 °F 22.4 °F 14.5 °F 61% 29.96 in 10.0 mi SSE 3.5 mph - N/A   Clear
6:35 PM 26.1 °F - 14.5 °F 62% 29.95 in 10.0 mi Calm Calm - N/A   Clear
6:55 PM 25.2 °F - 14.5 °F 64% 29.96 in 10.0 mi Calm Calm - N/A   Clear
7:15 PM 26.8 °F 21.4 °F 10.4 °F 50% 29.96 in 10.0 mi WNW 4.6 mph - N/A   Clear
7:35 PM 26.1 °F 18.4 °F 10.4 °F 52% 29.97 in 10.0 mi WNW 6.9 mph - N/A   Clear
7:55 PM 25.7 °F 18.0 °F 10.4 °F 52% 29.99 in 10.0 mi WNW 6.9 mph - N/A   Clear
8:15 PM 25.3 °F 18.5 °F 10.4 °F 53% 30.00 in 10.0 mi WNW 5.8 mph - N/A   Clear
8:35 PM 25.3 °F 18.5 °F 10.2 °F 53% 30.01 in 10.0 mi WNW 5.8 mph - N/A   Clear
8:55 PM 24.6 °F 18.8 °F 9.9 °F 54% 30.03 in 10.0 mi NW 4.6 mph - N/A   Clear
9:15 PM 24.3 °F 19.9 °F 9.9 °F 54% 30.04 in 10.0 mi NW 3.5 mph - N/A   Mostly Cloudy
9:35 PM 24.4 °F 20.1 °F 10.2 °F 55% 30.06 in 10.0 mi NW 3.5 mph - N/A   Overcast
9:55 PM 24.6 °F 18.8 °F 10.4 °F 55% 30.06 in 10.0 mi WNW 4.6 mph - N/A   Overcast
10:15 PM 25.2 °F 18.3 °F 10.8 °F 54% 30.07 in 10.0 mi WNW 5.8 mph - N/A   Overcast
10:35 PM 24.8 °F 16.9 °F 10.4 °F 54% 30.07 in 10.0 mi WNW 6.9 mph - N/A   Overcast
10:55 PM 24.6 °F 18.8 °F 10.4 °F 55% 30.07 in 10.0 mi NW 4.6 mph - N/A   Overcast
11:15 PM 23.9 °F 18.0 °F 10.0 °F 56% 30.08 in 10.0 mi NW 4.6 mph - N/A   Mostly Cloudy
11:35 PM 24.3 °F 13.9 °F 10.4 °F 56% 30.09 in 10.0 mi NNW 10.4 mph - N/A   Overcast
11:55 PM 23.7 °F 11.5 °F 10.8 °F 58% 30.09 in 10.0 mi North 13.8 mph 19.6 mph N/A   Overcast